Weather History for Reading, PA

Change the Weather History Date:

Monday, April 1, 2013

  Actual Average Record
Temperature  
Mean Temperature 47 °F 47 °F  
Max Temperature 59 °F 57 °F 82 °F (1978)
Min Temperature 34 °F 37 °F 12 °F (1923)
Degree Days  
Heating Degree Days 18 18  
Month to date heating degree days 18 18  
Since 1 July heating degree days 4505 4803  
Cooling Degree Days 0 0  
Month to date cooling degree days 0 0  
Year to date cooling degree days 0 0  
Moisture  
Dew Point 37 °F    
Average Humidity 64    
Maximum Humidity 100    
Minimum Humidity 28    
Precipitation  
Precipitation T in 0.15 in 1.34 in (1976)
Month to date precipitation T 0.15  
Year to date precipitation 7.04 9.16  
Sea Level Pressure  
Sea Level Pressure 29.75 in    
Wind  
Wind Speed 11 mph (WSW)    
Max Wind Speed 30 mph    
Max Gust Speed 39 mph    
Visibility 4 miles    
Events Fog , Rain    
T = Trace of Precipitation, MM = Missing Value Source: NWS Daily Summary

Daily Weather History Graph

Daily Weather History Graph

Search for Another Location

Airport:

Trip Planner

Search our weather history database for the weather conditions in past years. The results will help you decide how hot, cold, wet, or windy it might be!

Date:

Astronomy

Apr. 01, 2013 Rise Set
Actual Time 6:47 AM EDT 7:28 PM EDT
Civil Twilight 6:19 AM EDT 7:56 PM EDT
Nautical Twilight 5:47 AM EDT 8:28 PM EDT
Astronomical Twilight 5:13 AM EDT 9:02 PM EDT
Moon 12:35 AM EDT (4/1) 10:30 AM EDT (4/1)
Length of Visible Light 13h 36m
Length of Day
12h 41m
Waning Gibbous, 67% of the Moon is Illuminated
Apr 1
Waning Gibbous
Apr 3
Last Quarter
Apr 10
New
Apr 18
First Quarter
Apr 25
Full

Hourly Weather History & Observations

Time (EDT) Temp. Windchill Dew Point Humidity Pressure Visibility Wind Dir Wind Speed Gust Speed Precip Events Conditions
12:54 AM 45.0 °F 43.5 °F 42.1 °F 90% 29.73 in 5.0 mi WNW 3.5 mph - N/A   Clear
1:37 AM 44.6 °F - 42.8 °F 93% 29.72 in 1.5 mi Calm Calm - N/A   Partly Cloudy
1:40 AM 42.8 °F 41.1 °F 42.8 °F 100% 29.72 in 0.8 mi South 3.5 mph - N/A   Mist
1:52 AM 42.8 °F 41.1 °F 41.0 °F 93% 29.73 in 2.5 mi SW 3.5 mph - N/A   Clear
1:54 AM 43.0 °F 41.3 °F 41.0 °F 93% 29.75 in 4.0 mi SSW 3.5 mph - N/A   Clear
2:29 AM 42.8 °F 38.6 °F 41.0 °F 93% 29.73 in 3.0 mi SW 6.9 mph - N/A   Partly Cloudy
2:40 AM 42.8 °F 41.1 °F 42.8 °F 100% 29.73 in 2.5 mi SW 3.5 mph - N/A   Mostly Cloudy
3:02 AM 42.8 °F - 42.8 °F 100% 29.72 in 1.8 mi Calm Calm - N/A   Scattered Clouds
3:13 AM 42.8 °F - 41.0 °F 93% 29.72 in 0.8 mi Calm Calm - N/A   Mist
3:20 AM 39.2 °F 37.0 °F 39.2 °F 100% 29.72 in 0.2 mi North 3.5 mph - N/A Fog Fog
3:39 AM 42.8 °F - 42.8 °F 100% 29.72 in 0.8 mi Calm Calm - N/A   Overcast
3:47 AM 42.8 °F 41.1 °F 42.8 °F 100% 29.72 in 2.0 mi NW 3.5 mph - N/A   Overcast
3:51 AM 42.8 °F 41.1 °F 42.8 °F 100% 29.72 in 3.0 mi Variable 3.5 mph - N/A   Overcast
4:11 AM 42.8 °F - 42.8 °F 100% 29.72 in 2.5 mi Calm Calm - N/A   Overcast
4:54 AM 43.0 °F 40.3 °F 42.1 °F 97% 29.74 in 2.5 mi SW 4.6 mph - N/A   Overcast
5:02 AM 42.8 °F - 42.8 °F 100% 29.72 in 3.0 mi Calm Calm - N/A   Overcast
5:15 AM 42.8 °F - 41.0 °F 93% 29.72 in 1.8 mi Calm Calm - N/A   Mostly Cloudy
5:29 AM 42.8 °F - 41.0 °F 93% 29.71 in 0.8 mi Calm Calm - N/A   Mostly Cloudy
5:36 AM 42.8 °F 41.1 °F 41.0 °F 93% 29.71 in 0.8 mi South 3.5 mph - N/A   Mostly Cloudy
5:50 AM 39.2 °F 37.0 °F 39.2 °F 100% 29.71 in 0.2 mi South 3.5 mph - N/A Fog Fog
5:54 AM 41.0 °F 38.0 °F 39.9 °F 96% 29.73 in 0.2 mi South 4.6 mph - N/A Fog Fog
7:45 AM 42.8 °F - 39.2 °F 87% 29.71 in 0.2 mi Calm Calm - N/A Fog Fog
7:52 AM 41.0 °F - 39.2 °F 93% 29.71 in 0.2 mi Calm Calm - N/A Fog Fog
7:54 AM 39.9 °F - 39.9 °F 100% 29.73 in 0.2 mi Calm Calm - N/A Fog Fog
7:57 AM 39.2 °F - 39.2 °F 100% 29.71 in 0.2 mi Calm Calm - N/A Fog Fog
8:16 AM 41.0 °F - 41.0 °F 100% 29.71 in 0.2 mi Calm Calm - N/A Fog Fog
8:26 AM 42.8 °F - 42.8 °F 100% 29.71 in 0.2 mi Calm Calm - N/A Fog Fog
8:35 AM 42.8 °F 41.1 °F 42.8 °F 100% 29.71 in 0.5 mi SE 3.5 mph - N/A Fog Fog
8:39 AM 42.8 °F 41.1 °F 42.8 °F 100% 29.71 in 1.0 mi SSE 3.5 mph - N/A   Mist
8:47 AM 44.6 °F 42.2 °F 42.8 °F 93% 29.71 in 2.0 mi SSE 4.6 mph - N/A   Scattered Clouds
9:54 AM 52.0 °F - 45.0 °F 77% 29.72 in 10.0 mi West 6.9 mph - N/A   Clear
10:54 AM 57.0 °F - 43.0 °F 59% 29.71 in 10.0 mi West 11.5 mph 19.6 mph N/A   Clear
11:54 AM 55.9 °F - 39.9 °F 55% 29.72 in 15.0 mi NW 18.4 mph 33.4 mph N/A   Scattered Clouds
2:54 PM 48.9 °F - 35.1 °F 59% 29.76 in 10.0 mi West 16.1 mph 35.7 mph 0.00 in Rain Light Rain
4:54 PM 51.1 °F - 28.0 °F 41% 29.78 in 10.0 mi WNW 21.9 mph 29.9 mph N/A   Scattered Clouds
5:54 PM 50.0 °F - 21.9 °F 33% 29.80 in 10.0 mi WNW 16.1 mph 26.5 mph N/A   Partly Cloudy
6:54 PM 48.0 °F - 19.9 °F 33% 29.83 in 10.0 mi WNW 13.8 mph - N/A   Mostly Cloudy
7:54 PM 45.0 °F 38.2 °F 14.0 °F 29% 29.86 in 10.0 mi WNW 15.0 mph - N/A   Partly Cloudy
8:54 PM 43.0 °F 36.8 °F 12.9 °F 30% 29.90 in 10.0 mi WNW 11.5 mph - N/A   Clear
9:54 PM 41.0 °F 33.1 °F 10.9 °F 29% 29.94 in 10.0 mi NNW 15.0 mph 23.0 mph N/A   Clear
10:54 PM 39.0 °F 31.8 °F 10.0 °F 30% 29.96 in 10.0 mi NNW 11.5 mph - N/A   Clear
11:54 PM 34.0 °F 28.0 °F 12.0 °F 40% 29.97 in 10.0 mi NW 6.9 mph - N/A   Clear